H1 CPF 2 NER 2023 6 1 9 152 01 glonass140 H2 1903001 9140 44299 2023 6 1 0 0 0 2023 6 4 23 45 0 900 1 1 0 0 0 1 H9 10 0 60096 0.00000 0 -3019295.354 12278634.994 22182389.372 10 0 60096 900.00000 0 -5491109.826 13273294.220 21109138.055 10 0 60096 1800.00000 0 -7742096.775 14378093.963 19627120.621 10 0 60096 2700.00000 0 -9726998.857 15544329.156 17764988.110 10 0 60096 3600.00000 0 -11411361.078 16717104.941 15558740.685 10 0 60096 4500.00000 0 -12772709.224 17837660.122 13051042.632 10 0 60096 5400.00000 0 -13801233.561 18845873.226 10290409.070 10 0 60096 6300.00000 0 -14499949.900 19682847.065 7330278.835 10 0 60096 7200.00000 0 -14884331.583 20293463.952 4227990.247 10 0 60096 8100.00000 0 -14981427.826 20628804.410 1043678.644 10 0 60096 9000.00000 0 -14828505.292 20648327.394 -2160883.734 10 0 60096 9900.00000 0 -14471269.806 20321719.445 -5323483.305 10 0 60096 10800.00000 0 -13961742.915 19630333.755 -8382673.056 10 0 60096 11700.00000 0 -13355882.838 18568156.886 -11278969.134 10 0 60096 12600.00000 0 -12711050.316 17142260.636 -13956012.341 10 0 60096 13500.00000 0 -12083426.794 15372718.031 -16361671.411 10 0 60096 14400.00000 0 -11525494.575 13291984.981 -18449065.886 10 0 60096 15300.00000 0 -11083686.189 10943771.710 -20177487.983 10 0 60096 16200.00000 0 -10796303.229 8381449.597 -21513204.820 10 0 60096 17100.00000 0 -10691793.569 5666058.808 -22430124.766 10 0 60096 18000.00000 0 -10787460.767 2863998.982 -22910314.346 10 0 60096 18900.00000 0 -11088661.151 44498.749 -22944355.140 10 0 60096 19800.00000 0 -11588523.375 -2723030.742 -22531533.270 10 0 60096 20700.00000 0 -12268203.045 -5371648.075 -21679857.385 10 0 60096 21600.00000 0 -13097662.161 -7839429.048 -20405904.480 10 0 60096 22500.00000 0 -14036940.799 -10071803.191 -18734496.320 10 0 60096 23400.00000 0 -15037867.293 -12023581.892 -16698212.672 10 0 60096 24300.00000 0 -16046134.450 -13660593.781 -14336750.913 10 0 60096 25200.00000 0 -17003653.548 -14960859.591 -11696144.753 10 0 60096 26100.00000 0 -17851085.895 -15915258.267 -8827857.847 10 0 60096 27000.00000 0 -18530444.127 -16527657.769 -5787770.688 10 0 60096 27900.00000 0 -18987652.397 -16814506.787 -2635081.462 10 0 60096 28800.00000 0 -19174956.463 -16803906.539 568856.634 10 0 60096 29700.00000 0 -19053081.245 -16534203.890 3761737.846 10 0 60096 30600.00000 0 -18593044.381 -16052167.293 6881521.692 10 0 60096 31500.00000 0 -17777549.205 -15410824.451 9867641.618 10 0 60096 32400.00000 0 -16601898.641 -14667054.637 12662180.469 10 0 60096 33300.00000 0 -15074391.925 -13879038.442 15210989.873 10 0 60096 34200.00000 0 -13216187.983 -13103673.176 17464732.079 10 0 60096 35100.00000 0 -11060641.624 -12394062.934 19379824.808 10 0 60096 36000.00000 0 -8652140.528 -11797188.582 20919271.950 10 0 60096 36900.00000 0 -6044491.582 -11351854.801 22053365.349 10 0 60096 37800.00000 0 -3298923.335 -11086999.303 22760245.597 10 0 60096 38700.00000 0 -481786.780 -11020433.985 23026312.472 10 0 60096 39600.00000 0 2337951.279 -11158069.639 22846478.317 10 0 60096 40500.00000 0 5091319.912 -11493655.850 22224260.430 10 0 60096 41400.00000 0 7711954.408 -12009046.442 21171711.194 10 0 60096 42300.00000 0 10138598.966 -12674979.298 19709187.386 10 0 60096 43200.00000 0 12317399.886 -13452338.224 17864962.703 10 0 60096 44100.00000 0 14203895.840 -14293844.739 15674690.215 10 0 60096 45000.00000 0 15764623.910 -15146109.800 13180724.047 10 0 60096 45900.00000 0 16978275.661 -15951960.448 10431312.123 10 0 60096 46800.00000 0 17836355.744 -16652944.660 7479674.284 10 0 60096 47700.00000 0 18343315.797 -17191909.829 4382982.428 10 0 60096 48600.00000 0 18516158.098 -17515546.803 1201261.401 10 0 60096 49500.00000 0 18383525.350 -17576792.248 -2003768.792 10 0 60096 50400.00000 0 17984314.520 -17336987.556 -5169887.377 10 0 60096 51300.00000 0 17365872.728 -16767702.246 -8235580.711 10 0 60096 52200.00000 0 16581850.902 -15852143.482 -11141240.031 10 0 60096 53100.00000 0 15689805.637 -14586090.492 -13830325.317 10 0 60096 54000.00000 0 14748650.506 -12978312.477 -16250472.015 10 0 60096 54900.00000 0 13816064.706 -11050450.251 -18354518.450 10 0 60096 55800.00000 0 12945968.924 -8836364.497 -20101433.158 10 0 60096 56700.00000 0 12186175.594 -6380976.014 -21457123.443 10 0 60096 57600.00000 0 11576313.461 -3738644.832 -22395108.759 10 0 60096 58500.00000 0 11146114.773 -971154.655 -22897045.236 10 0 60096 59400.00000 0 10914138.111 1854614.164 -22953090.621 10 0 60096 60300.00000 0 10886981.334 4669226.691 -22562102.090 10 0 60096 61200.00000 0 11059018.364 7403344.799 -21731662.660 10 0 60096 62100.00000 0 11412671.145 9990377.457 -20477935.382 10 0 60096 63000.00000 0 11919205.367 12369019.426 -18825347.898 10 0 60096 63900.00000 0 12540016.126 14485572.373 -16806113.431 10 0 60096 64800.00000 0 13228348.730 16295951.584 -14459597.583 10 0 60096 65700.00000 0 13931381.191 17767294.727 -11831543.559 10 0 60096 66600.00000 0 14592579.433 18879105.908 -8973171.450 10 0 60096 67500.00000 0 15154224.545 19623888.085 -5940169.853 10 0 60096 68400.00000 0 15560004.069 20007238.670 -2791600.415 10 0 60096 69300.00000 0 15757556.667 20047406.011 411262.263 10 0 60096 70200.00000 0 15700861.684 19774327.383 3606131.655 10 0 60096 71100.00000 0 15352371.957 19228191.078 6730926.904 10 0 60096 72000.00000 0 14684799.446 18457585.207 9724982.407 10 0 60096 72900.00000 0 13682478.288 17517313.015 12530225.379 10 0 60096 73800.00000 0 12342248.013 16465968.195 15092298.422 10 0 60096 74700.00000 0 10673820.071 15363373.208 17361605.560 10 0 60096 75600.00000 0 8699612.630 14267988.799 19294262.203 10 0 60096 76500.00000 0 6454060.716 13234403.347 20852931.755 10 0 60096 77400.00000 0 3982430.542 12311006.793 22007533.982 10 0 60096 78300.00000 0 1339187.059 11537945.586 22735812.946 10 0 60096 79200.00000 0 -1414018.085 10945442.961 23023754.988 10 0 60096 80100.00000 0 -4210655.707 10552553.504 22865849.944 10 0 60096 81000.00000 0 -6981831.044 10366402.792 22265191.519 10 0 60096 81900.00000 0 -9658896.125 10381942.899 21233415.431 10 0 60096 82800.00000 0 -12176056.110 10582233.346 19790476.615 10 0 60096 83700.00000 0 -14472863.433 10939235.533 17964269.421 10 0 60096 84600.00000 0 -16496498.016 11415087.553 15790097.344 10 0 60096 85500.00000 0 -18203740.263 11963806.507 13310001.489 10 0 60097 0.00000 0 -19562555.803 12533347.592 10571959.705 10 0 60097 900.00000 0 -20553227.305 13067934.573 7628969.059 10 0 60097 1800.00000 0 -21168984.718 13510563.576 4538031.917 10 0 60097 2700.00000 0 -21416109.914 13805576.276 1359059.333 10 0 60097 3600.00000 0 -21313509.211 13901193.340 -1846284.130 10 0 60097 4500.00000 0 -20891771.990 13751901.248 -5015773.565 10 0 60097 5400.00000 0 -20191754.343 13320590.860 -8087831.576 10 0 60097 6300.00000 0 -19262746.858 12580356.201 -11002727.176 10 0 60097 7200.00000 0 -18160303.376 11515875.887 -13703741.932 10 0 60097 8100.00000 0 -16943822.055 10124316.910 -16138280.129 10 0 60097 9000.00000 0 -15673980.735 8415720.564 -18258900.648 10 0 60097 9900.00000 0 -14410134.957 6412851.992 -20024249.740 10 0 60097 10800.00000 0 -13207788.711 4150517.545 -21399875.879 10 0 60097 11700.00000 0 -12116244.984 1674376.552 -22358910.179 10 0 60097 12600.00000 0 -11176535.648 -960704.373 -22882598.536 10 0 60097 13500.00000 0 -10419718.410 -3692687.037 -22960674.636 10 0 60097 14400.00000 0 -9865612.961 -6454703.288 -22591566.091 10 0 60097 15300.00000 0 -9522029.863 -9177605.377 -21782429.303 10 0 60097 16200.00000 0 -9384524.687 -11792618.950 -20549012.039 10 0 60097 17100.00000 0 -9436687.603 -14233987.999 -18915346.168 10 0 60097 18000.00000 0 -9650955.758 -16441501.299 -16913276.428 10 0 60097 18900.00000 0 -9989913.421 -18362794.696 -14581834.485 10 0 60097 19800.00000 0 -10408024.021 -19955333.080 -11966470.714 10 0 60097 20700.00000 0 -10853719.717 -21187989.297 -9118159.223 10 0 60097 21600.00000 0 -11271758.788 -22042154.458 -6092394.254 10 0 60097 22500.00000 0 -11605749.792 -22512334.039 -2948098.462 10 0 60097 23400.00000 0 -11800734.329 -22606206.033 253534.573 10 0 60097 24300.00000 0 -11805717.999 -22344140.394 3450239.947 10 0 60097 25200.00000 0 -11576041.544 -21758201.864 6579898.788 10 0 60097 26100.00000 0 -11075491.355 -20890680.070 9581748.767 10 0 60097 27000.00000 0 -10278059.883 -19792210.614 12397563.751 10 0 60097 27900.00000 0 -9169281.694 -18519567.764 14972779.509 10 0 60097 28800.00000 0 -7747089.065 -17133222.716 17257543.900 10 0 60097 29700.00000 0 -6022151.433 -15694770.603 19207671.900 10 0 60097 30600.00000 0 -4017684.603 -14264334.289 20785488.061 10 0 60097 31500.00000 0 -1768737.758 -12898053.235 21960541.422 10 0 60097 32400.00000 0 679012.277 -11645761.566 22710180.552 10 0 60097 33300.00000 0 3270909.929 -10548951.091 23019979.065 10 0 60097 34200.00000 0 5945345.337 -9639102.849 22884004.669 10 0 60097 35100.00000 0 8636071.675 -8936455.281 22304927.542 10 0 60097 36000.00000 0 11274720.868 -8449259.051 21293966.501 10 0 60097 36900.00000 0 13793415.094 -8173548.519 19870674.111 10 0 60097 37800.00000 0 16127367.654 -8093438.646 18062564.548 10 0 60097 38700.00000 0 18217366.968 -8181934.591 15904590.606 10 0 60097 39600.00000 0 20012041.975 -8402220.152 13438478.916 10 0 60097 40500.00000 0 21469815.861 -8709371.381 10711934.947 10 0 60097 41400.00000 0 22560467.451 -9052423.956 7777731.826 10 0 60097 42300.00000 0 23266235.399 -9376707.968 4692699.411 10 0 60097 43200.00000 0 23582418.937 -9626352.246 1516632.156 10 0 60097 44100.00000 0 23517449.651 -9746852.847 -1688863.865 10 0 60097 45000.00000 0 23092430.637 -9687597.168 -4861562.800 10 0 60097 45900.00000 0 22340161.674 -9404236.476 -7939826.710 10 0 60097 46800.00000 0 21303690.671 -8860805.621 -10863805.501 10 0 60097 47700.00000 0 20034451.722 -8031498.931 -13576605.296 10 0 60097 48600.00000 0 18590067.662 -6902025.476 -16025401.945 10 0 60097 49500.00000 0 17031909.392 -5470484.441 -18162477.354 10 0 60097 50400.00000 0 15422514.676 -3747721.503 -19946157.669 10 0 60097 51300.00000 0 13822975.190 -1757148.927 -21341634.415 10 0 60097 52200.00000 0 12290402.034 465965.201 -22321651.927 10 0 60097 53100.00000 0 10875576.687 2875710.711 -22867047.092 10 0 60097 54000.00000 0 9620886.525 5417202.845 -22967130.393 10 0 60097 54900.00000 0 8558631.970 8028634.979 -22619900.357 10 0 60097 55800.00000 0 7709776.606 10643631.627 -21832086.849 10 0 60097 56700.00000 0 7083192.717 13193803.863 -20619022.031 10 0 60097 57600.00000 0 6675433.698 15611400.631 -19004341.253 10 0 60097 58500.00000 0 6471042.259 17831945.031 -17019519.612 10 0 60097 59400.00000 0 6443380.573 19796745.234 -14703253.263 10 0 60097 60300.00000 0 6555946.138 21455174.785 -12100697.761 10 0 60097 61200.00000 0 6764116.414 22766626.768 -9262578.841 10 0 60097 62100.00000 0 7017246.940 23702060.121 -6244193.642 10 0 60097 63000.00000 0 7261032.577 24245073.774 -3104322.763 10 0 60097 63900.00000 0 7440030.395 24392464.406 95924.527 10 0 60097 64800.00000 0 7500235.983 24154245.647 3294308.370 10 0 60097 65700.00000 0 7391602.971 23553129.495 6428675.323 10 0 60097 66600.00000 0 7070398.323 22623493.469 9438169.707 10 0 60097 67500.00000 0 6501293.301 21409878.678 12264415.243 10 0 60097 68400.00000 0 5659101.625 19965083.522 14852643.853 10 0 60097 69300.00000 0 4530091.606 18347934.318 17152749.948 10 0 60097 70200.00000 0 3112817.227 16620827.213 19120250.486 10 0 60097 71100.00000 0 1418433.483 14847144.617 20717133.272 10 0 60097 72000.00000 0 -529517.131 13088653.982 21912578.379 10 0 60097 72900.00000 0 -2695838.212 11402996.814 22683540.274 10 0 60097 73800.00000 0 -5034902.982 9841371.426 23015180.825 10 0 60097 74700.00000 0 -7492317.639 8446504.553 22901146.141 10 0 60097 75600.00000 0 -10006956.548 7250994.623 22343682.897 10 0 60097 76500.00000 0 -12513286.236 6276094.067 21353592.485 10 0 60097 77400.00000 0 -14943883.400 5530979.914 19950024.015 10 0 60097 78300.00000 0 -17232044.166 5012541.927 18160109.832 10 0 60097 79200.00000 0 -19314377.965 4705696.300 16018449.839 10 0 60097 80100.00000 0 -21133279.689 4584211.393 13566453.533 10 0 60097 81000.00000 0 -22639178.444 4612010.904 10851551.209 10 0 60097 81900.00000 0 -23792469.962 4744899.995 7926288.237 10 0 60097 82800.00000 0 -24565052.333 4932642.256 4847318.731 10 0 60097 83700.00000 0 -24941400.759 5121300.439 1674317.004 10 0 60097 84600.00000 0 -24919135.856 5255742.547 -1531172.868 10 0 60097 85500.00000 0 -24509060.899 5282207.506 -4706927.493 10 0 60098 0.00000 0 -23734665.608 5150821.650 -7791251.392 10 0 60098 900.00000 0 -22631115.865 4817958.833 -10724179.006 10 0 60098 1800.00000 0 -21243772.012 4248343.372 -13448643.578 10 0 60098 2700.00000 0 -19626295.902 3416805.199 -15911595.081 10 0 60098 3600.00000 0 -17838426.672 2309611.305 -18065040.629 10 0 60098 4500.00000 0 -15943518.078 925315.192 -19866988.020 10 0 60098 5400.00000 0 -14005940.810 -724913.686 -21282273.093 10 0 60098 6300.00000 0 -12088458.955 -2617496.532 -22283254.130 10 0 60098 7200.00000 0 -10249690.956 -4717181.225 -22850359.205 10 0 60098 8100.00000 0 -8541761.843 -6978278.640 -22972475.254 10 0 60098 9000.00000 0 -7008245.416 -9346348.961 -22647170.894 10 0 60098 9900.00000 0 -5682482.832 -11760268.372 -21880748.180 10 0 60098 10800.00000 0 -4586348.000 -14154590.379 -20688122.003 10 0 60098 11700.00000 0 -3729511.265 -16462103.237 -19092529.207 10 0 60098 12600.00000 0 -3109231.631 -18616476.486 -17125073.006 10 0 60098 13500.00000 0 -2710685.288 -20554885.568 -14824111.609 10 0 60098 14400.00000 0 -2507815.290 -22220504.341 -12234503.213 10 0 60098 15300.00000 0 -2464665.008 -23564760.667 -9406722.602 10 0 60098 16200.00000 0 -2537137.328 -24549260.379 -6395867.252 10 0 60098 17100.00000 0 -2675103.395 -25147298.970 -3260573.230 10 0 60098 18000.00000 0 -2824769.900 -25344897.975 -61863.111 10 0 60098 18900.00000 0 -2931203.018 -25141323.332 3138050.563 10 0 60098 19800.00000 0 -2940900.748 -24549065.100 6276981.940 10 0 60098 20700.00000 0 -2804303.630 -23593280.792 9293984.058 10 0 60098 21600.00000 0 -2478136.919 -22310727.285 12130532.460 10 0 60098 22500.00000 0 -1927484.873 -20748227.625 14731657.080 10 0 60098 23400.00000 0 -1127509.534 -18960738.365 17047000.614 10 0 60098 24300.00000 0 -64741.822 -17009099.322 19031783.577 10 0 60098 25200.00000 0 1262109.145 -14957560.372 20647658.401 10 0 60098 26100.00000 0 2841862.182 -12871188.510 21863437.358 10 0 60098 27000.00000 0 4651097.906 -10813262.750 22655681.725 10 0 60098 27900.00000 0 6654910.805 -8842764.251 23009142.293 10 0 60098 28800.00000 0 8808148.708 -7012064.690 22917043.993 10 0 60098 29700.00000 0 11057089.015 -5364907.282 22381210.178 10 0 60098 30600.00000 0 13341483.232 -3934762.595 21412024.765 10 0 60098 31500.00000 0 15596886.358 -2743625.857 20028233.131 10 0 60098 32400.00000 0 17757175.983 -1801304.294 18256585.279 10 0 60098 33300.00000 0 19757158.015 -1105223.025 16131327.458 10 0 60098 34200.00000 0 21535152.149 -640756.830 13693550.987 10 0 60098 35100.00000 0 23035450.607 -382073.477 10990409.634 10 0 60098 36000.00000 0 24210548.464 -293453.210 8074219.322 10 0 60098 36900.00000 0 25023052.781 -331029.146 5001456.363 10 0 60098 37800.00000 0 25447190.636 -444875.644 1831672.544 10 0 60098 38700.00000 0 25469852.391 -581356.917 -1373652.742 10 0 60098 39600.00000 0 25091125.576 -685636.852 -4552301.474 10 0 60098 40500.00000 0 24324295.896 -704243.881 -7642524.200 10 0 60098 41400.00000 0 23195314.079 -587581.916 -10584241.826 10 0 60098 42300.00000 0 21741749.750 -292280.313 -13320218.235 10 0 60098 43200.00000 0 20011275.188 216717.792 -15797180.329 10 0 60098 44100.00000 0 18059741.715 964418.673 -17966863.033 10 0 60098 45000.00000 0 15948928.846 1964467.903 -19786958.173 10 0 60098 45900.00000 0 13744060.230 3218324.298 -21221948.046 10 0 60098 46800.00000 0 11511190.357 4714954.783 -22243806.795 10 0 60098 47700.00000 0 9314571.596 6431065.041 -22832555.310 10 0 60098 48600.00000 0 7214111.945 8331858.092 -22976658.340 10 0 60098 49500.00000 0 5263030.061 10372290.506 -22673255.595 10 0 60098 50400.00000 0 3505805.868 12498774.755 -21928221.951 10 0 60098 51300.00000 0 1976512.432 14651257.159 -20756055.232 10 0 60098 52200.00000 0 697598.667 16765584.765 -19179593.534 10 0 60098 53100.00000 0 -320826.697 18776062.030 -17229567.469 10 0 60098 54000.00000 0 -1081180.812 20618089.898 -14943996.116 10 0 60098 54900.00000 0 -1598055.580 22230776.223 -12367438.662 10 0 60098 55800.00000 0 -1897346.049 23559407.467 -9550116.854 10 0 60098 56700.00000 0 -2014896.979 24557677.514 -6546926.027 10 0 60098 57600.00000 0 -1994726.655 25189579.718 -3416354.897 10 0 60098 58500.00000 0 -1886905.079 25430882.716 -219336.261 10 0 60098 59400.00000 0 -1745178.184 25270128.332 2981947.913 10 0 60098 60300.00000 0 -1624440.321 24709110.386 6125282.718 10 0 60098 61200.00000 0 -1578163.366 23762815.308 9149633.255 10 0 60098 62100.00000 0 -1655892.212 22458828.307 11996330.169 10 0 60098 63000.00000 0 -1900913.072 20836231.320 14610204.544 10 0 60098 63900.00000 0 -2348193.242 18944040.151 16940650.324 10 0 60098 64800.00000 0 -3022679.058 16839247.189 18942594.327 10 0 60098 65700.00000 0 -3938023.363 14584552.039 20577356.128 10 0 60098 66600.00000 0 -5095795.545 12245874.874 21813382.432 10 0 60098 67500.00000 0 -6485207.013 9889755.672 22626843.275 10 0 60098 68400.00000 0 -8083363.499 7580746.540 23002079.953 10 0 60098 69300.00000 0 -9856033.949 5378904.199 22931897.393 10 0 60098 70200.00000 0 -11758904.518 3337485.040 22417696.329 10 0 60098 71100.00000 0 -13739266.449 1500936.586 21469443.378 10 0 60098 72000.00000 0 -15738068.841 -96733.045 20105479.770 10 0 60098 72900.00000 0 -17692252.352 -1433141.662 18352172.162 10 0 60098 73800.00000 0 -19537268.280 -2498227.598 16243411.537 10 0 60098 74700.00000 0 -21209679.550 -3294424.521 13819968.860 10 0 60098 75600.00000 0 -22649736.426 -3836309.904 11128718.694 10 0 60098 76500.00000 0 -23803820.369 -4149742.222 8221744.415 10 0 60098 77400.00000 0 -24626654.322 -4270523.103 5155341.125 10 0 60098 78300.00000 0 -25083186.959 -4242640.517 1988934.454 10 0 60098 79200.00000 0 -25150071.428 -4116166.747 -1216064.628 10 0 60098 80100.00000 0 -24816675.653 -3944899.608 -4397447.252 10 0 60098 81000.00000 0 -24085580.587 -3783846.545 -7493413.455 10 0 60098 81900.00000 0 -22972544.018 -3686658.217 -10443774.804 10 0 60098 82800.00000 0 -21505929.991 -3703120.700 -13191129.000 10 0 60098 83700.00000 0 -19725626.335 -3876813.359 -15681983.070 10 0 60098 84600.00000 0 -17681494.501 -4243032.677 -17867802.603 10 0 60098 85500.00000 0 -15431415.673 -4827071.385 -19705965.848 10 0 60099 0.00000 0 -13039014.562 -5642927.216 -21160603.295 10 0 60099 900.00000 0 -10571154.412 -6692498.119 -22203306.426 10 0 60099 1800.00000 0 -8095311.056 -7965298.568 -22813689.369 10 0 60099 2700.00000 0 -5676931.541 -9438712.086 -22979794.584 10 0 60099 3600.00000 0 -3376890.929 -11078769.897 -22698332.159 10 0 60099 4500.00000 0 -1249152.413 -12841424.597 -21974748.513 10 0 60099 5400.00000 0 661271.332 -14674266.168 -20823122.655 10 0 60099 6300.00000 0 2319970.505 -16518608.819 -19265891.789 10 0 60099 7200.00000 0 3704335.580 -18311861.116 -17333411.482 10 0 60099 8100.00000 0 4804250.425 -19990079.709 -15063359.009 10 0 60099 9000.00000 0 5622253.252 -21490598.917 -12499991.737 10 0 60099 9900.00000 0 6173160.130 -22754625.050 -9693275.482 10 0 60099 10800.00000 0 6483168.796 -23729685.760 -6697900.538 10 0 60099 11700.00000 0 6588482.553 -24371830.894 -3572205.421 10 0 60099 12600.00000 0 6533514.496 -24647491.901 -377030.404 10 0 60099 13500.00000 0 6368750.073 -24534921.554 2825475.726 10 0 60099 14400.00000 0 6148360.295 -24025153.733 5973071.436 10 0 60099 15300.00000 0 5927668.202 -23122443.560 9004636.131 10 0 60099 16200.00000 0 5760576.987 -21844170.262 11861357.580 10 0 60099 17100.00000 0 5697069.313 -20220207.911 14487869.824 10 0 60099 18000.00000 0 5780883.755 -18291791.425 16833319.618 10 0 60099 18900.00000 0 6047466.338 -16109926.195 18852341.406 10 0 60099 19800.00000 0 6522283.083 -13733408.317 20505922.965 10 0 60099 20700.00000 0 7219563.969 -11226538.190 21762146.247 10 0 60099 21600.00000 0 8141530.509 -8656622.336 22596790.589 10 0 60099 22500.00000 0 9278138.894 -6091366.464 22993788.111 10 0 60099 23400.00000 0 10607349.324 -3596266.774 22945523.829 10 0 60099 24300.00000 0 12095910.502 -1232106.119 22452975.759 10 0 60099 25200.00000 0 13700627.147 947343.023 21525692.941 10 0 60099 26100.00000 0 15370058.642 2897315.360 20181612.036 10 0 60099 27000.00000 0 17046579.232 4583668.382 18446715.768 10 0 60099 27900.00000 0 18668715.289 5984051.243 16354539.100 10 0 60099 28800.00000 0 20173663.521 7088579.604 13945531.707 10 0 60099 29700.00000 0 21499886.282 7899989.262 11266287.776 10 0 60099 30600.00000 0 22589676.501 8433262.739 8368656.713 10 0 60099 31500.00000 0 23391585.458 8714744.686 5308750.705 10 0 60099 32400.00000 0 23862611.845 8780783.232 2145867.234 10 0 60099 33300.00000 0 23970059.898 8675954.225 -1058653.412 10 0 60099 34200.00000 0 23692987.744 8450942.977 -4242613.988 10 0 60099 35100.00000 0 23023183.876 8160172.783 -7344166.639 10 0 60099 36000.00000 0 21965629.171 7859280.449 -10303016.264 10 0 60099 36900.00000 0 20538423.322 7602545.902 -13061597.038 10 0 60099 37800.00000 0 18772177.053 7440385.207 -15566198.678 10 0 60099 38700.00000 0 16708893.963 7417013.977 -17768019.874 10 0 60099 39600.00000 0 14400387.513 7568381.144 -19624127.591 10 0 60099 40500.00000 0 11906298.293 7920461.877 -21098302.869 10 0 60099 41400.00000 0 9291793.729 8487983.239 -22161755.993 10 0 60099 42300.00000 0 6625045.902 9273637.995 -22793696.432 10 0 60099 43200.00000 0 3974592.545 10267821.215 -22981745.948 10 0 60099 44100.00000 0 1406691.338 11448902.195 -22722186.332 10 0 60099 45000.00000 0 -1017222.053 12784021.385 -22020036.526 10 0 60099 45900.00000 0 -3242866.084 14230379.637 -20888957.300 10 0 60099 46800.00000 0 -5225138.343 15736966.072 -19350985.091 10 0 60099 47700.00000 0 -6929749.131 17246652.004 -17436100.066 10 0 60099 48600.00000 0 -8334395.909 18698562.646 -15181636.875 10 0 60099 49500.00000 0 -9429430.406 20030626.320 -12631549.775 10 0 60099 50400.00000 0 -10217991.717 21182193.164 -9835546.961 10 0 60099 51300.00000 0 -10715601.492 22096612.275 -6848111.630 10 0 60099 52200.00000 0 -10949240.238 22723657.992 -3727429.733 10 0 60099 53100.00000 0 -10955945.821 23021702.466 -534246.408 10 0 60099 54000.00000 0 -10780995.515 22959542.632 2669325.546 10 0 60099 54900.00000 0 -10475750.515 22517804.565 5821020.919 10 0 60099 55800.00000 0 -10095255.873 21689866.373 8859636.454 10 0 60099 56700.00000 0 -9695698.814 20482261.352 11726220.128 10 0 60099 57600.00000 0 -9331833.873 18914545.193 14365212.014 10 0 60099 58500.00000 0 -9054484.108 17018633.645 16725514.709 10 0 60099 59400.00000 0 -8908223.885 14837639.075 18761473.230 10 0 60099 60300.00000 0 -8929340.467 12424255.045 20433746.377 10 0 60099 61200.00000 0 -9144159.561 9838756.487 21710053.993 10 0 60099 62100.00000 0 -9567804.329 7146698.437 22565787.141 10 0 60099 63000.00000 0 -10203439.217 4416408.268 22984470.901 10 0 60099 63900.00000 0 -11042029.677 1716374.340 22958072.168 10 0 60099 64800.00000 0 -12062627.592 -887362.171 22487147.600 10 0 60099 65700.00000 0 -13233170.622 -3333706.022 21580829.544 10 0 60099 66600.00000 0 -14511762.592 -5568795.548 20256650.417 10 0 60099 67500.00000 0 -15848382.352 -7547986.273 18540208.755 10 0 60099 68400.00000 0 -17186950.874 -9237449.915 16464682.648 10 0 60099 69300.00000 0 -18467671.489 -10615323.761 14070199.025 10 0 60099 70200.00000 0 -19629546.619 -11672363.682 11403069.683 10 0 60099 71100.00000 0 -20612966.721 -12412074.295 8514907.546 10 0 60099 72000.00000 0 -21362263.661 -12850311.169 5461638.931 10 0 60099 72900.00000 0 -21828121.686 -13014371.833 2302429.873 10 0 60099 73800.00000 0 -21969744.528 -12941613.639 -901453.600 10 0 60099 74700.00000 0 -21756686.863 -12677656.342 -4087829.634 10 0 60099 75600.00000 0 -21170271.896 -12274244.994 -7194806.384 10 0 60099 76500.00000 0 -20204533.908 -11786863.182 -10161986.026 10 0 60099 77400.00000 0 -18866644.288 -11272197.567 -12931643.112 10 0 60099 78300.00000 0 -17176801.212 -10785561.210 -15449853.823 10 0 60099 79200.00000 0 -15167585.633 -10378385.256 -17667553.457 10 0 60099 80100.00000 0 -12882808.854 -10095885.859 -19541500.819 10 0 60099 81000.00000 0 -10375898.415 -9975006.027 -21035130.012 10 0 60099 81900.00000 0 -7707888.587 -10042720.537 -22119272.386 10 0 60099 82800.00000 0 -4945098.621 -10314776.754 -22772733.920 10 0 60099 83700.00000 0 -2156595.104 -10794925.736 -22982716.291 10 0 60099 84600.00000 0 588455.991 -11474677.199 -22745072.913 10 0 60099 85500.00000 0 3223437.223 -12333589.647 -22064394.538 99